UAE256 MMMX-LEBL

Flight info

Callsign UAE256
Flight time N/A
Altitude 35000
Route NOXOS2B NOXOS UT106 AXOMU UM346 APLOT/N0485F360 UM451 EMOVI/N0489F350 UM451 METGA/N0486F360 UR628 TANIA/N0488F350 R628 ZOLLA DCT MLSAP M330 MILLE/M083F350 M330 DUNIG/M083F370 M330 SHEIL DCT NUMBR DCT 3330N06000W 3730N05000W 40N040W 4130N03000W/M083F390 4230N02000W DCT RETEN/N0480F390 DCT STG DCT SUSOS DCT NUBLO DCT NEDUS DCT RATAS DCT DGO DCT VASUM DCT YAKXU/N0486F400 N725 VAKIN DCT DIRMU N725 LOBAR LOBAR3N
Aircraft B77L/H-SDE1E2E3FGHIJ2J3J4J5M1RWXY/LB1D1

Departure

Time 2026-05-04 23:25
Airport Mexico City Benito Juárez International Airport (MMMX)

Arrival

Time N/A
Airport Josep Tarradellas Barcelona-El Prat Airport (LEBL)
Time Latitude Longitude Altitude Speed Heading
2026-05-04 22:51 19.43552 -99.08068 7329 ft 0 kts 329°
2026-05-04 23:06 19.43545 -99.08063 7330 ft 4 kts 329°
2026-05-04 23:06 19.43529 -99.08053 7330 ft 4 kts 328°
2026-05-04 23:07 19.43506 -99.08038 7330 ft 4 kts 328°
2026-05-04 23:07 19.43487 -99.08025 7330 ft 4 kts 308°
2026-05-04 23:07 19.43479 -99.08008 7329 ft 4 kts 258°
2026-05-04 23:07 19.43489 -99.07984 7329 ft 4 kts 238°
2026-05-04 23:08 19.43494 -99.07976 7329 ft 0 kts 240°
2026-05-04 23:12 19.43493 -99.07977 7329 ft 1 kts 240°
2026-05-04 23:12 19.43475 -99.08010 7329 ft 8 kts 240°
2026-05-04 23:13 19.43446 -99.08060 7329 ft 4 kts 225°
2026-05-04 23:13 19.43421 -99.08062 7329 ft 4 kts 150°
2026-05-04 23:13 19.43397 -99.08048 7329 ft 4 kts 156°
2026-05-04 23:13 19.43372 -99.08044 7329 ft 5 kts 179°
2026-05-04 23:14 19.43315 -99.08059 7329 ft 11 kts 233°
2026-05-04 23:14 19.43277 -99.08128 7329 ft 11 kts 239°
2026-05-04 23:14 19.43240 -99.08194 7329 ft 10 kts 239°
2026-05-04 23:14 19.43205 -99.08257 7329 ft 10 kts 240°
2026-05-04 23:15 19.43171 -99.08318 7329 ft 9 kts 239°
2026-05-04 23:15 19.43134 -99.08386 7329 ft 12 kts 240°
2026-05-04 23:15 19.43092 -99.08463 7329 ft 12 kts 239°
2026-05-04 23:15 19.43051 -99.08535 7329 ft 11 kts 239°
2026-05-04 23:16 19.43008 -99.08611 7329 ft 12 kts 239°
2026-05-04 23:16 19.42966 -99.08685 7329 ft 11 kts 239°
2026-05-04 23:16 19.42926 -99.08756 7329 ft 11 kts 239°
2026-05-04 23:16 19.42888 -99.08825 7329 ft 11 kts 239°
2026-05-04 23:17 19.42852 -99.08890 7329 ft 10 kts 239°
2026-05-04 23:17 19.42817 -99.08953 7329 ft 10 kts 239°
2026-05-04 23:17 19.42781 -99.09013 7329 ft 10 kts 238°
2026-05-04 23:17 19.42737 -99.09064 7329 ft 10 kts 185°
2026-05-04 23:18 19.42699 -99.09016 7329 ft 9 kts 98°
2026-05-04 23:18 19.42694 -99.08951 7329 ft 9 kts 94°
2026-05-04 23:18 19.42689 -99.08888 7329 ft 8 kts 94°
2026-05-04 23:18 19.42685 -99.08828 7329 ft 7 kts 96°
2026-05-04 23:19 19.42684 -99.08821 7329 ft 0 kts 96°
2026-05-04 23:19 19.42684 -99.08820 7329 ft 0 kts 96°
2026-05-04 23:21 19.42682 -99.08799 7329 ft 7 kts 96°
2026-05-04 23:21 19.42676 -99.08732 7329 ft 9 kts 94°
2026-05-04 23:22 19.42673 -99.08664 7329 ft 9 kts 83°
2026-05-04 23:22 19.42685 -99.08622 7329 ft 9 kts 68°
2026-05-04 23:22 19.42697 -99.08595 7329 ft 0 kts 58°
2026-05-04 23:24 19.42778 -99.08449 7330 ft 55 kts 63°
2026-05-04 23:24 19.43086 -99.07900 7330 ft 117 kts 59°
2026-05-04 23:25 19.43600 -99.06977 7330 ft 171 kts 60°
2026-05-04 23:25 19.44283 -99.05755 7379 ft 209 kts 58°
2026-05-04 23:25 19.45056 -99.04422 7925 ft 213 kts 59°
2026-05-04 23:25 19.45859 -99.03075 8563 ft 220 kts 60°
2026-05-04 23:26 19.46692 -99.01696 9025 ft 231 kts 60°
2026-05-04 23:26 19.47607 -99.00195 9239 ft 254 kts 58°
2026-05-04 23:26 19.48612 -98.98549 9523 ft 275 kts 58°
2026-05-04 23:26 19.49667 -98.96808 10055 ft 285 kts 58°
2026-05-04 23:27 19.50699 -98.94988 10720 ft 290 kts 59°
2026-05-04 23:27 19.51727 -98.93124 11395 ft 298 kts 59°
2026-05-04 23:27 19.52743 -98.91144 11854 ft 314 kts 64°
2026-05-04 23:27 19.53597 -98.88940 12300 ft 332 kts 70°
2026-05-04 23:28 19.54329 -98.86558 12738 ft 349 kts 73°
2026-05-04 23:28 19.54977 -98.84046 13095 ft 368 kts 75°
2026-05-04 23:28 19.55638 -98.81355 13544 ft 383 kts 75°
2026-05-04 23:28 19.56349 -98.78591 14118 ft 393 kts 74°
2026-05-04 23:29 19.57089 -98.75774 14773 ft 400 kts 74°
2026-05-04 23:29 19.57834 -98.72902 15502 ft 405 kts 75°
2026-05-04 23:29 19.58469 -98.69965 16221 ft 409 kts 77°
2026-05-04 23:29 19.58993 -98.66987 16943 ft 412 kts 79°
2026-05-04 23:30 19.59450 -98.63971 17585 ft 416 kts 79°
2026-05-04 23:30 19.59928 -98.60930 18244 ft 420 kts 78°
2026-05-04 23:30 19.60455 -98.57867 18777 ft 426 kts 78°
2026-05-04 23:30 19.60992 -98.54769 19385 ft 429 kts 78°
2026-05-04 23:31 19.61499 -98.51633 19919 ft 434 kts 80°
2026-05-04 23:31 19.61720 -98.48461 20424 ft 440 kts 88°